TimeEST,TemperatureF,Dew PointF,Humidity,Sea Level PressureIn,VisibilityMPH,Wind Direction,Wind SpeedMPH,Gust SpeedMPH,PrecipitationIn,Events,Conditions,WindDirDegrees,DateUTC
12:15 AM,47.5,47.3,99,30.30,10.0,North,-9999.0,-,N/A,,Mostly Cloudy,0,2012-12-04 05:15:00
12:35 AM,46.8,46.6,99,30.30,10.0,North,-9999.0,-,N/A,,Scattered Clouds,0,2012-12-04 05:35:00
12:55 AM,46.4,46.4,100,30.29,7.0,North,-9999.0,-,N/A,,Clear,0,2012-12-04 05:55:00
1:15 AM,45.7,45.7,100,30.29,10.0,North,-9999.0,-,N/A,,Clear,0,2012-12-04 06:15:00
1:35 AM,45.7,45.7,100,30.30,7.0,North,-9999.0,-,N/A,,Mostly Cloudy,0,2012-12-04 06:35:00
1:55 AM,45.0,45.0,100,30.30,7.0,North,-9999.0,-,N/A,,Scattered Clouds,0,2012-12-04 06:55:00
2:15 AM,44.6,44.6,100,30.30,10.0,North,-9999.0,-,N/A,,Clear,0,2012-12-04 07:15:00
2:35 AM,44.4,44.4,100,30.30,10.0,North,-9999.0,-,N/A,,Clear,0,2012-12-04 07:35:00
2:55 AM,43.7,43.7,100,30.30,10.0,North,-9999.0,-,N/A,,Clear,0,2012-12-04 07:55:00
3:15 AM,43.5,43.5,100,30.30,10.0,North,-9999.0,-,N/A,,Clear,0,2012-12-04 08:15:00
3:35 AM,43.3,43.3,100,30.30,7.0,North,-9999.0,-,N/A,,Clear,0,2012-12-04 08:35:00
3:55 AM,43.2,43.2,100,30.30,3.0,North,-9999.0,-,N/A,,Clear,0,2012-12-04 08:55:00
4:15 AM,42.8,42.8,100,30.29,7.0,North,-9999.0,-,N/A,,Clear,0,2012-12-04 09:15:00
4:35 AM,42.4,42.4,100,30.29,7.0,North,-9999.0,-,N/A,,Clear,0,2012-12-04 09:35:00
4:55 AM,42.1,42.1,100,30.29,7.0,North,-9999.0,-,N/A,,Clear,0,2012-12-04 09:55:00
5:15 AM,42.3,42.3,100,30.29,5.0,North,-9999.0,-,N/A,,Clear,0,2012-12-04 10:15:00
5:35 AM,41.9,41.9,100,30.29,10.0,North,-9999.0,-,N/A,,Clear,0,2012-12-04 10:35:00
5:55 AM,41.9,41.9,100,30.29,7.0,North,-9999.0,-,N/A,,Clear,0,2012-12-04 10:55:00
6:15 AM,41.9,41.9,100,30.30,10.0,North,-9999.0,-,N/A,,Scattered Clouds,0,2012-12-04 11:15:00
6:35 AM,43.0,43.0,100,30.30,7.0,North,-9999.0,-,N/A,,Mostly Cloudy,0,2012-12-04 11:35:00
6:55 AM,44.6,44.6,100,30.30,7.0,North,-9999.0,-,N/A,,Mostly Cloudy,0,2012-12-04 11:55:00
7:15 AM,44.2,44.2,100,30.30,4.0,North,-9999.0,-,N/A,,Scattered Clouds,0,2012-12-04 12:15:00
7:35 AM,43.7,43.7,100,30.30,2.5,North,-9999.0,-,N/A,,Clear,0,2012-12-04 12:35:00
7:55 AM,42.8,42.8,100,30.30,5.0,North,-9999.0,-,N/A,,Clear,0,2012-12-04 12:55:00
8:15 AM,42.8,42.8,100,30.31,4.0,North,-9999.0,-,N/A,,Clear,0,2012-12-04 13:15:00
8:35 AM,43.7,43.7,100,30.31,5.0,North,-9999.0,-,N/A,,Clear,0,2012-12-04 13:35:00
8:55 AM,46.2,46.2,100,30.31,7.0,North,-9999.0,-,N/A,,Clear,0,2012-12-04 13:55:00
9:15 AM,48.6,48.6,100,30.31,10.0,North,-9999.0,-,N/A,,Scattered Clouds,0,2012-12-04 14:15:00
9:55 AM,54.1,52.9,95,30.31,10.0,North,-9999.0,-,N/A,,Scattered Clouds,0,2012-12-04 14:55:00
10:15 AM,57.4,54.5,90,30.31,10.0,North,-9999.0,-,N/A,,Scattered Clouds,0,2012-12-04 15:15:00
10:35 AM,57.4,55.0,92,30.30,10.0,North,-9999.0,-,N/A,,Scattered Clouds,0,2012-12-04 15:35:00
10:55 AM,64.0,54.1,70,30.29,10.0,North,-9999.0,-,N/A,,Mostly Cloudy,0,2012-12-04 15:55:00
11:15 AM,66.4,53.1,62,30.28,10.0,North,-9999.0,-,N/A,,Overcast,0,2012-12-04 16:15:00
11:35 AM,68.0,52.7,58,30.27,10.0,North,-9999.0,-,N/A,,Mostly Cloudy,0,2012-12-04 16:35:00
11:55 AM,68.5,52.9,57,30.26,10.0,North,-9999.0,-,N/A,,Mostly Cloudy,0,2012-12-04 16:55:00
12:15 PM,68.7,52.7,57,30.24,10.0,North,-9999.0,-,N/A,,Overcast,0,2012-12-04 17:15:00
12:35 PM,68.7,52.9,57,30.23,10.0,North,-9999.0,-,N/A,,Mostly Cloudy,0,2012-12-04 17:35:00
12:55 PM,69.1,52.7,56,30.23,10.0,North,-9999.0,-,N/A,,Overcast,0,2012-12-04 17:55:00
1:15 PM,68.4,52.3,57,30.22,10.0,North,-9999.0,-,N/A,,Overcast,0,2012-12-04 18:15:00
1:35 PM,68.5,52.2,56,30.21,10.0,North,-9999.0,-,N/A,,Overcast,0,2012-12-04 18:35:00
1:55 PM,69.3,52.3,55,30.20,10.0,North,-9999.0,-,N/A,,Overcast,0,2012-12-04 18:55:00
2:15 PM,70.7,52.3,52,30.20,10.0,North,-9999.0,-,N/A,,Overcast,0,2012-12-04 19:15:00
2:35 PM,69.1,52.3,55,30.20,10.0,North,-9999.0,-,N/A,,Overcast,0,2012-12-04 19:35:00
2:55 PM,69.8,52.7,54,30.19,10.0,North,-9999.0,-,N/A,,Overcast,0,2012-12-04 19:55:00
3:15 PM,69.1,52.7,56,30.19,10.0,North,-9999.0,-,N/A,,Scattered Clouds,0,2012-12-04 20:15:00
3:35 PM,69.1,52.9,56,30.19,10.0,North,-9999.0,-,N/A,,Scattered Clouds,0,2012-12-04 20:35:00
4:15 PM,68.4,52.3,57,30.19,10.0,North,-9999.0,-,N/A,,Mostly Cloudy,0,2012-12-04 21:15:00
4:35 PM,68.0,52.3,57,30.19,10.0,North,-9999.0,-,N/A,,Overcast,0,2012-12-04 21:35:00
4:55 PM,67.6,52.3,58,30.19,10.0,North,-9999.0,-,N/A,,Overcast,0,2012-12-04 21:55:00
5:15 PM,65.7,53.1,64,30.19,10.0,North,-9999.0,-,N/A,Rain,Light Rain,0,2012-12-04 22:15:00
5:35 PM,63.1,53.4,71,30.20,10.0,North,-9999.0,-,N/A,,Overcast,0,2012-12-04 22:35:00
5:55 PM,62.1,53.1,72,30.20,10.0,North,-9999.0,-,N/A,,Overcast,0,2012-12-04 22:55:00
6:35 PM,63.0,52.9,70,30.20,10.0,North,-9999.0,-,N/A,,Overcast,0,2012-12-04 23:35:00
6:55 PM,62.1,53.1,72,30.20,10.0,North,-9999.0,-,N/A,,Overcast,0,2012-12-04 23:55:00
7:15 PM,61.7,53.1,73,30.20,10.0,North,-9999.0,-,N/A,,Overcast,0,2012-12-05 00:15:00
7:35 PM,62.1,53.1,72,30.20,10.0,North,-9999.0,-,N/A,,Overcast,0,2012-12-05 00:35:00
7:55 PM,62.1,52.9,72,30.20,10.0,North,-9999.0,-,N/A,,Overcast,0,2012-12-05 00:55:00
8:15 PM,64.6,52.2,64,30.20,10.0,North,-9999.0,-,N/A,,Overcast,0,2012-12-05 01:15:00
8:55 PM,63.1,52.5,68,30.19,10.0,North,-9999.0,-,N/A,,Overcast,0,2012-12-05 01:55:00
9:15 PM,63.3,52.9,69,30.19,10.0,North,-9999.0,-,N/A,,Overcast,0,2012-12-05 02:15:00
9:35 PM,63.5,52.5,67,30.18,10.0,North,-9999.0,-,N/A,,Overcast,0,2012-12-05 02:35:00
9:55 PM,60.8,52.7,75,30.18,10.0,North,-9999.0,-,N/A,,Overcast,0,2012-12-05 02:55:00
10:15 PM,61.2,52.7,74,30.18,10.0,North,-9999.0,-,N/A,,Overcast,0,2012-12-05 03:15:00
10:35 PM,60.8,52.7,75,30.18,10.0,North,-9999.0,-,N/A,,Overcast,0,2012-12-05 03:35:00
10:55 PM,60.3,52.2,75,30.18,10.0,North,-9999.0,-,N/A,,Overcast,0,2012-12-05 03:55:00
11:15 PM,62.6,52.2,69,30.17,10.0,North,-9999.0,-,N/A,,Overcast,0,2012-12-05 04:15:00
11:35 PM,61.7,52.5,72,30.18,10.0,North,-9999.0,-,N/A,,Overcast,0,2012-12-05 04:35:00
11:55 PM,64.0,52.3,66,30.17,10.0,North,-9999.0,-,N/A,,Overcast,0,2012-12-05 04:55:00